Location: Burland Observatory
(39.4088°N, 105.4217°W)
Time: 21:31:31
(UTC-07:00)

SR - Pass Details

Date: 16 December 2019
Orbit: 574 x 882 km, 66.7° (Epoch: 28 January)

Event Time Altitude Azimuth Distance (km) Brightness Sun altitude
Rises 16:42:46 0° 333° (NNW) 3,469 ? -1.4°
Reaches altitude 10° 16:45:20 10° 335° (NNW) 2,510 ? -1.8°
Maximum altitude 16:51:09 69° 59° (ENE) 888 ? -2.8°
Drops below altitude 10° 16:56:34 10° 143° (SE) 2,341 ? -3.7°
Sets 16:58:54 0° 146° (SE) 3,220 ? -4.1°
